sat.trackr.live / text

‹ back to catalog

POPACS 2

NORAD 39269 · 2013-055E

PAYLOAD ACTIVE UNKNOWN

§ Identity

Operator
Country
US
Launch date
2013-09-29
Launch site
AFWTR
Launch vehicle
Mass (kg)
RCS (m²)
0.02

Purposes: tech_demo

External: N2YO · Heavens-Above · Gunter

§ Orbital elements

Epoch: 2026-09-20T02:15:31.160160Z

Period
96.39 min
Inclination
80.9916°
Eccentricity
0.0405215
Mean motion
14.94006793 rev/d
Perigee alt
303.3 km
Apogee alt
867.6 km
Semi-major
6,963.6 km
B*
2.1596e-4
RAAN
35.3003°
Arg perigee
248.3628°
Mean anomaly
107.3978°
Rev number
67,737

§ Raw data

POPACS 21 39269U 13055E   26263.09411065  .00013014  00000+0  21596-3 0  99922 39269  80.9916  35.3003 0405215 248.3628 107.3978 14.94006793677376

JSON: /api/v1/satellites/39269 · /tle

For live sub-satellite position, see the globe view (requires WebGL).

§ Visibility from observer

Set your observer location to see the next 7 days of passes ≥ 10°. The values pass through the URL so the page stays shareable.

No JS? Fill the form by hand. The geolocation button needs JavaScript.